ROMMA est une association bénévole à but non lucratif. Votre soutien est indispensable : ADHERER à ROMMA ou FAIRE un DON

Chambon - (38, Isère)

Oisans (2460 m)   Longitude: 06° 10' 42" E   Latitude: 45° 01' 32" N Station partenaire n°803
 

Détail journalier du     <<     >>

Température Humidité Vent Dir Rafale Dir. rafale Neige 1 Neige 2
Heure (°C) (%) (km/h) (km/h) (cm) (cm)
01:00 0.4992SE9SE04
02:00 0.3963N10SSE04
03:00 -0.1971N4N04
04:00 0.5914ENE14SO04
05:00 0.7884SSO13SSO04
06:00 2.1747SO19SO04
07:00 2.46911SO19SO03
08:00 1.67910SO17SO04
09:00 2.5668SO13SO03
10:00 3.3608SO12SO04
11:00 3.37011SO17OSO03
12:00 4.16816SO25OSO04
13:00 4.35718OSO28OSO03
14:00 3.86019OSO33OSO03
15:00 2.57717OSO29OSO03
16:00 1.0957ENE24SO03
17:00 2.79311ENE33SO02
18:00 3.29315SO32SO03
19:00 3.89616SSO44SSO04
20:00 3.99517SSO42SSO03
21:00 3.39623OSO39OSO02
22:00 3.19323SO41SO03
23:00 3.39021SSO46SSO02
minuit 2.69313SSO38SSO03

Graphique du 01-11-2019

 

Serveur OMMA